Back to catalog

STARLINK-38008

AliveCommunicationsSSO
NORAD 69724·PAYLOAD·🇺🇸 United States

Launched Jun 28, 2026 from Vandenberg Space Force Base

Loading…

Next Passes (next 24 hours)

TLE

FreshSource: CelesTrak SupGP

Epoch: Sep 14, 2026, 15:17 UTC

1 69724C 26147W   26257.63729167 -.00014793  00000+0 -45914-3 0  2579
2 69724  97.2837 294.1359 0001007 104.7344  81.0945 15.33452804    13

Track STARLINK-38008 in real time with AllMySat

Download on the App Store